Tracking 33744 objects as of 12-Apr-2026
HD Live streaming from Space Station
objects crossing your sky now

DELTA 1 DEB

Track DELTA 1 DEB now!
10-day predictions


NORAD ID: 7169
Int'l Code: 1973-086EH
Perigee: 1,288.5 km
Apogee: 1,499.3 km
Inclination: 101.4 °
Period: 113.5 minutes
Semi major axis: 7764 km
RCS: 0.0854 m2 (small)
Launch date: November 6, 1973
Source: United States (US)
Launch site: AIR FORCE WESTERN TEST RANGE (AFWTR)

Note: This is SATELLITE DEBRIS
Your satellite tracking list
Your tracking list is empty




NASA's NSSDC Master Catalog

Two Line Element Set (TLE):
1 07169U 73086EH  26102.11501266  .00000339  00000-0  18978-2 0  9990
2 07169 101.4266 168.4195 0135703 203.8173 185.8314 12.68812530421094
Source of the keplerian elements: AFSPC